Погода в Гуджранвале

Пакистан     32°09′11″N   74°10′06″E
темп.,
°C
ветер,
м/с
пор.,
м/с
влажн.,
%
обл.,
%
осадки,
мм/ч
давл.,
гПа
погр.,
м
21 января, чт
чт2123:00+12сз23360 0.0 101438
02:00+10сз23370 0.0 101346
05:00+9сз22400 0.0 101238
08:00+10сз12430 0.0 101335
11:00+18ссз23260 0.0 1013447
14:00+22зсз34210 0.0 1010678
17:00+17з22300 0.0 100926
20:00+13ссз11330 0.0 101223
22 января, пт
пт2223:00+12всв113246 0.0 101223
02:00+11ссв1232100 0.0 101322
05:00+11в1232100 0.0 101223
08:00+12юв2237100 0.0 101341
11:00+18вюв2227100 0.0 1014356
14:00+21вюв2324100 0.0 1012685
17:00+18вюв3635100 0.0 1010142
20:00+15вюв41041100 0.0 1012207
23 января, сб
сб2323:00+14вюв5124271 0.0 1012270
02:00+15вюв5113961 0.0 1010374
05:00+14вюв384580 0.0 1009304
08:00+13вюв494892 0.0 1009321
11:00+16юв585194 1.8 1010800
14:00+19ссв334598 0.3 1009672
17:00+15с486251 0.3 1009291
20:00+12с34690 0.0 101182
24 января, вс
вс2423:00+10сз23720 0.0 101254
02:00+9с12820 0.0 101337
05:00+8ссв23890 0.0 101471
08:00+9св36880 0.0 1016165
11:00+17всв34530 0.0 1017675
14:00+20ссв23370 0.0 10151622
17:00+17ссз11430 0.0 101426
20:00+14зюз23460 0.0 101626
25 января, пн
пн2523:00+12с12500 0.0 101625
02:00+11ссв22580 0.0 101629
05:00+10с23530 0.0 101545
08:00+11ссз12570 0.0 101646
11:00+18с22370 0.0 1016429
14:00+22ссз22282 0.0 1014876
17:00+18зсз123811 0.0 101426
20:00+15зсз23420 0.0 101533